This is the latest recevied weather packets stored in our database for station/object IW5CTE-13. If no packets are shown the sender has not sent any weather packets the latest 10 day(s).
| Time | Temp. | Humidity | Pressure | Rain* | Wind** | Luminosity | Snow |
|---|---|---|---|---|---|---|---|
| 1777672051 | 15° C | 31% | 1025.8 hPa | - | - | - | - |
| 1777671451 | 15.56° C | 30% | 1025.8 hPa | - | - | - | - |
| 1777670851 | 16.11° C | 29% | 1025.7 hPa | - | - | - | - |
| 1777670251 | 16.11° C | 28% | 1025.7 hPa | - | - | - | - |
| 1777669651 | 16.11° C | 27% | 1025.5 hPa | - | - | - | - |
| 1777669052 | 16.11° C | 26% | 1025.4 hPa | - | - | - | - |
| 1777668452 | 16.11° C | 29% | 1025.5 hPa | - | - | - | - |
| 1777667851 | 16.67° C | 30% | 1025.6 hPa | - | - | - | - |
| 1777667251 | 16.67° C | 29% | 1025.5 hPa | - | - | - | - |
| 1777666651 | 16.67° C | 27% | 1025.3 hPa | - | - | - | - |
| 1777666053 | 16.67° C | 27% | 1025.1 hPa | - | - | - | - |
| 1777665451 | 16.67° C | 27% | 1025.2 hPa | - | - | - | - |
| 1777664852 | 16.67° C | 27% | 1025 hPa | - | - | - | - |
| 1777664252 | 17.22° C | 26% | 1024.8 hPa | - | - | - | - |
| 1777663652 | 17.22° C | 26% | 1024.6 hPa | - | - | - | - |
| 1777663051 | 17.78° C | 26% | 1024.5 hPa | - | - | - | - |
| 1777662452 | 17.78° C | 26% | 1024.5 hPa | - | - | - | - |
| 1777661851 | 17.78° C | 26% | 1024.2 hPa | - | - | - | - |
| 1777661251 | 17.78° C | 27% | 1024 hPa | - | - | - | - |
| 1777660651 | 18.33° C | 26% | 1024 hPa | - | - | - | - |
| 1777660051 | 18.89° C | 25% | 1023.8 hPa | - | - | - | - |
| 1777659451 | 19.44° C | 26% | 1023.8 hPa | - | - | - | - |
| 1777658851 | 19.44° C | 25% | 1023.6 hPa | - | - | - | - |
| 1777658251 | 18.89° C | 24% | 1023.3 hPa | - | - | - | - |
| 1777657652 | 19.44° C | 24% | 1023.1 hPa | - | - | - | - |
* Rain since midnight (hover to see other rain measurements)
** Current wind speed in m/s (hover to see current wind gust speed)